Regional Weather Roundup
Issued by NWS Wakefield, VA

Home | Current Version | Previous Version | Text Only | Print | Product List | Glossary On
Versions: 1 2 3 4 5 6 7 8 9 10 11 12 13 14 15 16 17 18 19 20 21 22 23 24 25 26 27 28 29 30 31 32 33 34 35 36 37 38 39 40 41 42 43 44 45 46 47 48 49 50
000
ASUS41 KAKQ 301115
RWRAKQ

REGIONAL WEATHER ROUNDUP
NATIONAL WEATHER SERVICE WAKEFIELD VA
700 AM EDT SAT MAY 30 2015

Note: "fair" indicates few or no clouds below 12,000 feet with no
significant weather and/or obstructions to visibility. * = Denotes
station may not report precipitation (e.g., rain,snow,etc.),
thunder or fog.

VAZ042-051-052>054-056-301200-
NORTHERN VIRGINIA

CITY           SKY/WX    TMP DP  RH WIND       PRES   REMARKS
WASH NATIONAL  PTSUNNY   73  68  84 S12       30.19S
DULLES         PTSUNNY   70  66  87 S6        30.19R
FORT BELVOIR   MOSUNNY   71  68  90 SE6       30.19S
QUANTICO       MOSUNNY   71  67  87 S12       30.21R
FREDERICKSBRG* SUNNY     69  69 100 CALM      30.20R
STAFFORD*      MOSUNNY   67  66  97 CALM      30.24R FOG
WARRENTON      PTSUNNY   68  68 100 S5        30.19S
CULPEPER*      MOSUNNY   64  64 100 CALM      30.20S FOG
MANASSAS*      MOSUNNY   68  68 100 CALM      30.19S
LEESBURG*      CLOUDY    68  68 100 S8        30.20S
WINCHESTER     PTSUNNY   68  68 100 W5        30.18R
FRONT ROYAL*   CLOUDY    63  63 100 CALM      30.17R
LURAY*         CLOUDY    66  66 100 CALM      30.19S FOG
$$

VAZ048-049-060>072-079>083-301200-
CENTRAL AND SOUTH CENTRAL VIRGINIA

CITY           SKY/WX    TMP DP  RH WIND       PRES   REMARKS
RICHMOND       MOSUNNY   70  67  90 S5        30.22R
CHESTERFIELD*  NOT AVBL
PETERSBURG*    FOG       67  67 100 CALM      30.23R VSB 3/4
HANOVER        SUNNY     68  67  96 S3        30.23R
TAPPAHANNOCK*  SUNNY     68  65  90 CALM      30.23R
QUINTON*       FAIR      68  67  96 CALM      30.21S
CHARLOTTSVILLE CLOUDY    68  66  93 S5        30.20R FOG
GORDONSVILLE*  FAIR      65  65  99 CALM      30.20R FOG
ORANGE*        MOSUNNY   68  66  94 CALM      30.22R
LOUISA*        SUNNY     68  66  94 S3        30.20S
BUMPASS*       FAIR      67  65  94 CALM      30.21R
FARMVILLE*     SUNNY     65  65 100 CALM      30.20R FOG
CREWE*         FAIR      66  64  96 CALM      30.22R
FORT PICKETT*  FAIR      66  65  97 CALM      30.22R
CHASE CITY*    FAIR      68  68 100 CALM      30.22R
CLARKSVILLE*   FAIR      64  64 100 CALM      30.22R
SOUTH HILL*    SUNNY     65  65  97 CALM      30.28R
LAWRENCEVILLE* FAIR      66  66 100 CALM      30.22R
EMPORIA*       MOSUNNY   64  64 100 CALM      30.24R FOG
$$

VAZ088>098-301200-
SOUTHEAST VIRGINIA

CITY           SKY/WX    TMP DP  RH WIND       PRES   REMARKS
NORFOLK        SUNNY     71  69  93 CALM      30.22R
VIRGINIA BEACH MOSUNNY   72  69  90 CALM      30.22R
NORFOLK NAVAL  MOSUNNY   75  68  78 S3        30.24R
WEST POINT*    SUNNY     73  69  87 S5        30.24S
SALUDA*        FAIR      69  67  96 CALM      30.22R
NEWPORT NEWS   SUNNY     72  67  84 CALM      30.23R
LANGLEY AFB    SUNNY     71  69  94 S2        30.22R
FORT EUSTIS    SUNNY     72  72 100 S3        30.21R FOG
WILLIAMSBURG*  SUNNY     73  72  94 S3        30.24R
HR EXEC AP*    FAIR      64  63  94 CALM      30.25R
FRANKLIN*      MOSUNNY   67  66  96 CALM      30.23S
WAKEFIELD      CLOUDY    68  67  96 CALM      30.23R FOG
$$

VAZ020-022-025-037-045-301200-
WEST CENTRAL AND SOUTHWEST VIRGINIA

CITY           SKY/WX    TMP DP  RH WIND       PRES   REMARKS
STAUNTON*      CLOUDY    67  65  94 CALM      30.23R FOG
WAYNESBORO*    CLOUDY    65  64  95 CALM      30.22R
HOT SPRINGS VA CLOUDY    64  57  80 SW7       30.29S
LYNCHBURG      SUNNY     63  62  97 S5        30.23R
DANVILLE       CLEAR     64  61  90 CALM      30.22R
SOUTH BOSTON*  FAIR      62  61  95 CALM      30.22R
MARTINSVILLE   CLEAR     61  61 100 CALM      30.25R
ROANOKE        PTCLDY    64  64 100 CALM      30.24R FOG
BLACKSBURG     FOG       61  60  98 CALM      30.28R VSB<1/4
DUBLIN*        FOG       63  63 100 CALM      30.27R VSB<1/4
MARION*          N/A     61  60  96 CALM      30.29R FOG
HILLSVILLE*    CLEAR     60  59  97 S3        30.30R
RICHLANDS*     FAIR      63  60  90 CALM      30.25R
WISE*          CLEAR     63  61  94 CALM      30.26R
ABINGDON*      CLEAR     62  62  99 CALM      30.24R
$$

MDZ021>025-VAZ099-100-301200-
SOUTHERN MARYLAND AND THE DELMARVA PENINSULA

CITY           SKY/WX    TMP DP  RH WIND       PRES   REMARKS
PATUXENT RIVER PTSUNNY   71  68  90 S7        30.21S
BAY BRIDGE APT   N/A    N/A N/A N/A S7        30.20S
LEONARDTOWN    SUNNY     70  64  83 S6        30.23R
DOVER          PTSUNNY   68  68 100 S6        30.19R
GEORGETOWN     CLOUDY    67  67 100 S8        30.24R
EASTON         PTSUNNY   70  70 100 S6        30.25R FOG
CAMBRIDGE      PTSUNNY   72  68  88 CALM      30.21S
SALISBURY      CLOUDY    65  65 100 CALM      30.23R FOG
OCEAN CITY     SUNNY     67  66  97 VRB3      30.24R
WALLOPS ISLAND MOSUNNY   68  68 100 S6        30.24R
ACCOMACK*      SUNNY     68  68 100 SE3       30.23R
$$

NCZ012>017-030>032-301200-
NORTH CENTRAL AND EASTERN NORTH CAROLINA

CITY           SKY/WX    TMP DP  RH WIND       PRES   REMARKS
ROANOKE RAPIDS FAIR      64  64 100 CALM      30.22S FOG
RALEIGH        MOSUNNY   68  66  93 SE5       30.22R
ELIZABETH CITY MOSUNNY   68  68 100 CALM      30.23R
AHOSKIE*       SUNNY     63  63  97 CALM      30.23S
EDENTON*       MOSUNNY   66  65  94 CALM      30.23R
CURRITUCK*     MOSUNNY   70  68  94 CALM      30.23S
KILL DEVIL HLS   N/A     68  66  92 CALM      30.22S
MANTEO         CLOUDY    69  67  92 CALM      30.23S
CAPE HATTERAS  MOSUNNY   72  65  78 E3        30.22R
TARBORO*       FAIR      65  65  97 CALM      30.23R FOG
GOLDSBORO      PTSUNNY   69  67  94 CALM      30.20R
WASHINGTON     SUNNY     65  64  95 CALM      30.23R
GREENVILLE     MOSUNNY   68  68 100 CALM      30.23R
NEW BERN       MOSUNNY   69  65  86 CALM      30.23R
WILMINGTON     SUNNY     68  65  90 NE3       30.20R
$$

VAZ048-301200-
ELSEWHERE

CITY           SKY/WX    TMP DP  RH WIND       PRES   REMARKS
HARRISBURG PA  CLOUDY    71  64  78 VRB3      30.16S
BALTIMORE      PTSUNNY   70  66  87 S3        30.19R
ANNAPOLIS      SUNNY     71  66  84 S8        30.20R
ANDREWS AFB    SUNNY     68  68  99 S6        30.19S
PHILADELPHIA   PTSUNNY   69  65  86 S6        30.21S
HENDERSON NC   SUNNY     66  64  91 S3        30.23R
GREENSBORO     PTCLDY    67  64  90 S3        30.22R
ROCKY MOUNT    MOSUNNY   68  67  96 CALM      30.23R
$$

VAZ100-301200-
MARINE

STATION/POSITION TIME  TEMP    WIND        PRES    WAVE   SWELL
                       AIR SEA DIR/SP/G            HT/PER HT/PER
                 (UTC) (F)     (DEG/KT/KT) (MB)    (FT/S) (FT/S)
BRANDYWINE LGT   1000   66 65  190/  8/ 11 1023.3R
CAPE MAY NJ      1000   64 68  150/  5/  6 1023.0R
LEWES DE         1000   68 62  190/  4/  5 1023.1R
15NM E FENWICK I 1050   66 65              1023.6R   3/ 9
OCEAN-CITY-INLET 1000   63 59  200/  5/  5 1023.3R
WACHAPREAGUE VA  1000   69 75  210/  6/  9 1023.3R
THOMAS POINT MD  1100   70 71  180/ 10/ 12 1023.2R
GOOSES REEF MD   1100   71 71  190/ 10/ 10 1023.8R   1/ 3
COVE POINT MD    1000   69     200/  6/  7 1023.3R
SOLOMONS ISLAND  1000      71                N/A
BISHOPS HEAD MD  1000   72 77  190/  8/ 10 1022.7R
PINEY POINT MD   1000          190/  6/  7   N/A
CAMBRIDGE MD     1000   69 75  170/  2/  3 1022.6R
LEWISETTA VA     1000   69 76              1022.6R
RAPPAHANNOCK LGT 1000          170/  9/ 10 1023.7R
STINGRAY PT      1100   73 73  190/  8/ 10 1023.2R   1/ 2
YORK RVR RNG VA  1000   72     190/  6/  7 1022.5R
YORKTOWN VA      1000   69 73  160/  1/  2 1022.8R
JAMESTOWN VA     1100   70 77  180/  4/  6   N/A
DOMINION TERM VA 1000   72     170/  4/  5 1023.2R
KIPTOPEKE VA     1000      76  160/  6/  6   N/A
CHES BAY BRIDGE  1000   71 64  150/  4/  5 1022.8R
CAPE HENRY VA    1000   68     150/  5/  6 1022.0R
CHESAPEAKE LGHT  1000   68     150/  9/  9 1023.9R
WILLOUBY STN VA  1000   71     150/  6/  7 1023.9R
CAPE HENRY BUOY  1028      65                N/A     3/ 8
1ST LANDING BUOY 1100      69              1023.1R
CAPE CHARLES BUO 1026      69                N/A     3/ 9   2/ 9
OFFSHORE WE BUOY 1011      68                N/A     3/10   3/10
64NM E OF VA BCH 1050   69 66  100/  4/  4 1023.5R   3/ 9   3/ 9
DUCK PIER NC     1000   69 58  100/  4/  5 1022.4R
44100 DUCK FRF   1024      74                N/A     3/ 9
44056 DUCK FRF   1011      64                N/A     3/ 9
OREGON INLET NC  1000   72 75  120/  3/  4 1023.2R
HATTERAS NC      1000   74 77  120/  3/  4 1022.6R
DIAMOND SHLS NC  1050   76 79  120/  8/ 10 1023.3R   4/ 9   3/ 9
CAPE LOOKOUT NC  1100   75     100/  4/  4 1022.7R
$$



USA.gov is the U.S. government's official web portal to all federal, state and local government web resources and services.